カタリナ-アトラス彗星

C/2020 K8 ( Catalina-ATLAS )

English version
Home page
Updated on September 20, 2020

---------------------------------------------------------------------

・ プロフィール

発見日 2020年5月25日、6月7日
発見光度 19.3等、18.7等
発見者 Catalina Sky Survey, Asteroid Terrestrial-Impact Last Alert System (ATLAS) search program

・ 写真集

・ 軌道要素

Epoch 2020 Sept. 28.0 TT = JDT 2459120.5
T 2020 Sept. 14.51883 TT                                Rudenko
q   0.4745437            (2000.0)            P               Q
z  -0.0002946      Peri.  260.06895     +0.15019366     -0.98856069
 +/-0.0001166      Node   181.51390     +0.97940018     +0.14687151
e   1.0001398      Incl.   31.41456     -0.13497092     -0.03430049
From 211 observations 2020 May 25-Aug. 2, mean residual 0".8.

・ 星図

・ 光度変化

        m1 = 14.0 + 5 logΔ + 10.0 log r

---------------------------------------------------------------------

軌道要素はM.P.E.C. 2020-P19に掲載されたものです。
星図はステラナビゲータ Ver.10 (アストロアーツ) で作成したものです。
光度グラフはComet for Windowsで作成したものです。

---------------------------------------------------------------------

Copyright(C) Seiichi Yoshida (comet@aerith.net). All rights reserved.